Location: downtown San Diego
(32.7310°N, 117.1990°W)
Time: 22:12:48
(UTC-07:00)

CZ-2C R/B - Pass Details

Date: 12 July 2018
Orbit: 785 x 870 km, 98.3° (Epoch: 24 September)

Event Time Altitude Azimuth Distance (km) Brightness Sun altitude
Rises 23:45:01 0° 0° (N) 3,303 6.7 -33.0°
Reaches altitude 10° 23:47:33 10° 351° (N) 2,362 5.8 -33.1°
Enters shadow 23:51:49 32° 297° (WNW) 1,320 4.0 -33.4°
